Time,TemperatureF,DewpointF,PressureIn,WindDirection,WindDirectionDegrees,WindSpeedMPH,WindSpeedGustMPH,Humidity,HourlyPrecipIn,Conditions,Clouds,dailyrainin,SoftwareType,DateUTC
2013-02-06 00:04:00,44.3,41.0,29.88,WNW,293,1.3,8.9,88,0.00,,,0.00,WUHU216HW,2013-02-06 08:04:00,
2013-02-06 00:09:00,44.5,41.1,29.89,South,180,6.3,8.3,88,0.00,,,0.00,WUHU216HW,2013-02-06 08:09:00,
2013-02-06 00:14:00,44.3,40.7,29.89,South,180,6.7,8.3,87,0.00,,,0.00,WUHU216HW,2013-02-06 08:14:00,
2013-02-06 00:19:00,44.5,40.9,29.89,South,180,3.8,6.7,87,0.00,,,0.00,WUHU216HW,2013-02-06 08:19:00,
2013-02-06 00:25:00,44.5,40.9,29.89,SSE,158,1.1,6.7,87,0.00,,,0.00,WUHU216HW,2013-02-06 08:25:00,
2013-02-06 00:30:00,44.3,40.7,29.89,SSE,158,3.4,6.3,87,0.00,,,0.00,WUHU216HW,2013-02-06 08:30:00,
2013-02-06 00:35:00,44.3,40.7,29.89,ESE,113,3.4,6.3,87,0.00,,,0.00,WUHU216HW,2013-02-06 08:35:00,
2013-02-06 00:40:00,44.3,40.7,29.89,WSW,248,3.1,4.5,87,0.00,,,0.00,WUHU216HW,2013-02-06 08:40:00,
2013-02-06 00:45:00,44.5,40.9,29.89,SSE,158,1.8,4.5,87,0.00,,,0.00,WUHU216HW,2013-02-06 08:45:00,
2013-02-06 00:50:00,44.5,40.9,29.89,NNW,338,0.7,4.5,87,0.00,,,0.00,WUHU216HW,2013-02-06 08:50:00,
2013-02-06 00:55:00,44.5,40.9,29.89,SE,135,2.5,3.8,87,0.00,,,0.00,WUHU216HW,2013-02-06 08:55:00,
2013-02-06 01:00:00,44.5,40.9,29.89,SSW,203,0.4,3.8,87,0.00,,,0.00,WUHU216HW,2013-02-06 09:00:00,
2013-02-06 01:05:00,44.5,40.9,29.90,ESE,113,1.8,3.6,87,0.00,,,0.00,WUHU216HW,2013-02-06 09:05:00,
2013-02-06 01:10:00,44.5,40.9,29.90,SE,135,1.8,6.9,87,0.00,,,0.00,WUHU216HW,2013-02-06 09:10:00,
2013-02-06 01:15:00,44.5,40.9,29.90,South,180,2.9,6.9,87,0.00,,,0.00,WUHU216HW,2013-02-06 09:15:00,
2013-02-06 01:20:00,44.5,40.9,29.90,South,180,0.2,4.7,87,0.00,,,0.00,WUHU216HW,2013-02-06 09:20:00,
2013-02-06 01:25:00,44.5,40.9,29.91,SSE,158,4.3,4.5,87,0.00,,,0.00,WUHU216HW,2013-02-06 09:25:00,
2013-02-06 01:30:00,44.5,40.9,29.91,South,180,3.4,5.6,87,0.00,,,0.00,WUHU216HW,2013-02-06 09:30:00,
2013-02-06 01:35:00,44.5,40.9,29.91,South,180,2.5,5.6,87,0.00,,,0.00,WUHU216HW,2013-02-06 09:35:00,
2013-02-06 01:40:00,44.5,40.9,29.91,SE,135,2.9,5.4,87,0.00,,,0.00,WUHU216HW,2013-02-06 09:40:00,
2013-02-06 01:46:00,44.5,40.9,29.91,South,180,1.8,5.1,87,0.00,,,0.00,WUHU216HW,2013-02-06 09:46:00,
2013-02-06 01:51:00,44.5,40.9,29.91,SE,135,1.8,6.9,87,0.00,,,0.00,WUHU216HW,2013-02-06 09:51:00,
2013-02-06 01:56:00,44.5,40.9,29.91,SSE,158,1.8,6.9,87,0.00,,,0.00,WUHU216HW,2013-02-06 09:56:00,
2013-02-06 02:01:00,44.5,40.5,29.91,SE,135,2.9,7.4,86,0.00,,,0.00,WUHU216HW,2013-02-06 10:01:00,
2013-02-06 02:06:00,44.5,40.5,29.91,SSE,158,6.3,7.4,86,0.00,,,0.00,WUHU216HW,2013-02-06 10:06:00,
2013-02-06 02:11:00,44.5,40.5,29.91,SE,135,2.0,6.3,86,0.00,,,0.00,WUHU216HW,2013-02-06 10:11:00,
2013-02-06 02:16:00,44.5,40.5,29.91,SSE,158,2.9,6.3,86,0.00,,,0.00,WUHU216HW,2013-02-06 10:16:00,
2013-02-06 02:21:00,44.5,40.5,29.91,SE,135,2.0,7.8,86,0.00,,,0.00,WUHU216HW,2013-02-06 10:21:00,
2013-02-06 02:26:00,44.3,40.3,29.91,South,180,2.5,7.8,86,0.00,,,0.00,WUHU216HW,2013-02-06 10:26:00,
2013-02-06 02:31:00,44.3,40.3,29.91,SSW,203,6.3,6.3,86,0.00,,,0.00,WUHU216HW,2013-02-06 10:31:00,
2013-02-06 02:36:00,44.3,40.7,29.91,ESE,113,0.9,6.3,87,0.00,,,0.00,WUHU216HW,2013-02-06 10:36:00,
2013-02-06 02:42:00,44.3,40.7,29.92,SE,135,2.9,8.9,87,0.00,,,0.00,WUHU216HW,2013-02-06 10:42:00,
2013-02-06 02:47:00,44.3,40.7,29.91,South,180,1.8,8.9,87,0.00,,,0.00,WUHU216HW,2013-02-06 10:47:00,
2013-02-06 02:52:00,44.3,40.7,29.91,South,180,4.0,5.8,87,0.00,,,0.00,WUHU216HW,2013-02-06 10:52:00,
2013-02-06 02:57:00,44.3,40.7,29.91,SSW,203,2.7,5.8,87,0.00,,,0.00,WUHU216HW,2013-02-06 10:57:00,
2013-02-06 03:02:00,44.1,40.5,29.91,South,180,3.6,9.6,87,0.00,,,0.00,WUHU216HW,2013-02-06 11:02:00,
2013-02-06 03:07:00,44.1,40.5,29.91,South,180,6.0,9.6,87,0.00,,,0.00,WUHU216HW,2013-02-06 11:07:00,
2013-02-06 03:12:00,44.1,40.5,29.91,SSE,158,6.3,9.6,87,0.00,,,0.00,WUHU216HW,2013-02-06 11:12:00,
2013-02-06 03:17:00,44.1,40.5,29.92,ESE,113,3.1,7.4,87,0.00,,,0.00,WUHU216HW,2013-02-06 11:17:00,
2013-02-06 03:22:00,44.1,40.5,29.92,SSW,203,1.1,6.7,87,0.00,,,0.00,WUHU216HW,2013-02-06 11:22:00,
2013-02-06 03:27:00,44.1,40.1,29.92,SSE,158,4.7,5.4,86,0.00,,,0.00,WUHU216HW,2013-02-06 11:27:00,
2013-02-06 03:32:00,44.1,40.1,29.92,SE,135,0.4,6.3,86,0.00,,,0.00,WUHU216HW,2013-02-06 11:32:00,
2013-02-06 03:37:00,44.1,40.1,29.92,ENE,68,0.4,6.3,86,0.00,,,0.00,WUHU216HW,2013-02-06 11:37:00,
2013-02-06 03:42:00,44.1,40.5,29.92,SE,135,2.5,6.9,87,0.00,,,0.00,WUHU216HW,2013-02-06 11:42:00,
2013-02-06 03:47:00,44.1,40.5,29.93,SSE,158,4.0,6.9,87,0.00,,,0.00,WUHU216HW,2013-02-06 11:47:00,
2013-02-06 03:52:00,44.1,40.5,29.93,SE,135,2.0,4.7,87,0.00,,,0.00,WUHU216HW,2013-02-06 11:52:00,
2013-02-06 03:57:00,44.1,40.5,29.93,SE,135,1.1,4.7,87,0.00,,,0.00,WUHU216HW,2013-02-06 11:57:00,
2013-02-06 04:02:00,44.1,40.5,29.93,SSW,203,2.0,6.3,87,0.00,,,0.00,WUHU216HW,2013-02-06 12:02:00,
2013-02-06 04:08:00,44.1,40.5,29.93,SSE,158,3.1,6.3,87,0.00,,,0.00,WUHU216HW,2013-02-06 12:08:00,
2013-02-06 04:13:00,44.1,40.5,29.93,South,180,2.7,6.9,87,0.00,,,0.00,WUHU216HW,2013-02-06 12:13:00,
2013-02-06 04:18:00,44.1,40.5,29.93,SSE,158,1.8,6.9,87,0.00,,,0.00,WUHU216HW,2013-02-06 12:18:00,
2013-02-06 04:23:00,43.9,40.0,29.94,SE,135,2.0,4.9,86,0.00,,,0.00,WUHU216HW,2013-02-06 12:23:00,
2013-02-06 04:28:00,44.1,40.1,29.93,SSE,158,5.6,5.6,86,0.00,,,0.00,WUHU216HW,2013-02-06 12:28:00,
2013-02-06 04:33:00,43.9,40.0,29.94,SSE,158,2.7,7.2,86,0.00,,,0.00,WUHU216HW,2013-02-06 12:33:00,
2013-02-06 04:38:00,43.9,40.0,29.94,SSW,203,4.5,7.2,86,0.00,,,0.00,WUHU216HW,2013-02-06 12:38:00,
2013-02-06 04:43:00,43.9,40.3,29.94,SE,135,3.6,7.6,87,0.00,,,0.00,WUHU216HW,2013-02-06 12:43:00,
2013-02-06 04:48:00,43.9,40.3,29.94,South,180,1.6,7.6,87,0.00,,,0.00,WUHU216HW,2013-02-06 12:48:00,
2013-02-06 04:53:00,43.9,40.3,29.94,South,180,4.7,4.7,87,0.00,,,0.00,WUHU216HW,2013-02-06 12:53:00,
2013-02-06 04:58:00,43.9,40.3,29.94,South,180,3.4,4.7,87,0.00,,,0.00,WUHU216HW,2013-02-06 12:58:00,
2013-02-06 05:03:00,43.9,40.3,29.94,ESE,113,1.6,4.5,87,0.00,,,0.00,WUHU216HW,2013-02-06 13:03:00,
2013-02-06 05:08:00,43.9,40.3,29.94,SE,135,2.5,4.3,87,0.00,,,0.00,WUHU216HW,2013-02-06 13:08:00,
2013-02-06 05:14:00,43.9,40.3,29.94,South,180,1.1,4.7,87,0.00,,,0.00,WUHU216HW,2013-02-06 13:14:00,
2013-02-06 05:19:00,43.7,40.2,29.95,South,180,1.8,4.7,87,0.00,,,0.00,WUHU216HW,2013-02-06 13:19:00,
2013-02-06 05:24:00,43.7,40.2,29.95,ESE,113,0.4,3.1,87,0.00,,,0.00,WUHU216HW,2013-02-06 13:24:00,
2013-02-06 05:29:00,43.7,40.2,29.95,South,180,3.1,3.1,87,0.00,,,0.00,WUHU216HW,2013-02-06 13:29:00,
2013-02-06 05:34:00,43.7,40.2,29.96,SSE,158,1.8,4.5,87,0.00,,,0.00,WUHU216HW,2013-02-06 13:34:00,
2013-02-06 05:39:00,43.7,40.2,29.96,ESE,113,2.2,4.5,87,0.00,,,0.00,WUHU216HW,2013-02-06 13:39:00,
2013-02-06 05:44:00,43.7,40.2,29.96,South,180,2.5,5.8,87,0.00,,,0.00,WUHU216HW,2013-02-06 13:44:00,
2013-02-06 05:49:00,43.7,40.2,29.96,SSW,203,2.5,5.8,87,0.00,,,0.00,WUHU216HW,2013-02-06 13:49:00,
2013-02-06 05:54:00,43.7,40.2,29.96,South,180,2.5,4.9,87,0.00,,,0.00,WUHU216HW,2013-02-06 13:54:00,
2013-02-06 05:59:00,43.7,40.2,29.96,SSE,158,2.2,4.9,87,0.00,,,0.00,WUHU216HW,2013-02-06 13:59:00,
2013-02-06 06:04:00,43.7,40.2,29.96,SSE,158,1.8,4.0,87,0.00,,,0.00,WUHU216HW,2013-02-06 14:04:00,
2013-02-06 06:09:00,43.7,40.4,29.96,South,180,1.6,5.4,88,0.00,,,0.00,WUHU216HW,2013-02-06 14:09:00,
2013-02-06 06:15:00,43.7,40.2,29.96,SSE,158,2.9,5.4,87,0.00,,,0.00,WUHU216HW,2013-02-06 14:15:00,
2013-02-06 06:20:00,43.7,40.2,29.96,SSE,158,2.2,5.4,87,0.00,,,0.00,WUHU216HW,2013-02-06 14:20:00,
2013-02-06 06:25:00,43.7,40.2,29.96,South,180,1.8,4.5,87,0.00,,,0.00,WUHU216HW,2013-02-06 14:25:00,
2013-02-06 06:30:00,43.7,40.4,29.97,South,180,2.5,3.4,88,0.00,,,0.00,WUHU216HW,2013-02-06 14:30:00,
2013-02-06 06:35:00,43.7,40.4,29.97,East,90,2.0,4.7,88,0.00,,,0.00,WUHU216HW,2013-02-06 14:35:00,
2013-02-06 06:40:00,43.7,40.2,29.97,SSE,158,1.8,4.7,87,0.00,,,0.00,WUHU216HW,2013-02-06 14:40:00,
2013-02-06 06:45:00,43.7,40.2,29.97,ESE,113,0.9,4.7,87,0.00,,,0.00,WUHU216HW,2013-02-06 14:45:00,
2013-02-06 06:50:00,43.7,40.4,29.98,SSE,158,1.8,3.4,88,0.00,,,0.00,WUHU216HW,2013-02-06 14:50:00,
2013-02-06 06:55:00,43.9,40.6,29.98,South,180,1.8,4.0,88,0.00,,,0.00,WUHU216HW,2013-02-06 14:55:00,
2013-02-06 07:00:00,43.7,40.4,29.98,SSW,203,0.4,4.0,88,0.00,,,0.00,WUHU216HW,2013-02-06 15:00:00,
2013-02-06 07:05:00,43.7,40.2,29.98,South,180,1.8,4.7,87,0.00,,,0.00,WUHU216HW,2013-02-06 15:05:00,
2013-02-06 07:11:00,43.7,40.4,29.98,SE,135,2.2,6.9,88,0.00,,,0.00,WUHU216HW,2013-02-06 15:11:00,
2013-02-06 07:16:00,43.7,40.4,29.98,SSE,158,1.1,6.9,88,0.00,,,0.00,WUHU216HW,2013-02-06 15:16:00,
2013-02-06 07:21:00,43.7,40.2,29.98,SSE,158,2.5,6.9,87,0.00,,,0.00,WUHU216HW,2013-02-06 15:21:00,
2013-02-06 07:26:00,43.7,40.2,29.98,SSW,203,6.9,6.9,87,0.00,,,0.00,WUHU216HW,2013-02-06 15:26:00,
2013-02-06 07:31:00,43.7,40.2,29.99,South,180,4.3,6.9,87,0.00,,,0.00,WUHU216HW,2013-02-06 15:31:00,
2013-02-06 07:36:00,43.7,40.2,29.99,SSE,158,3.4,6.9,87,0.00,,,0.00,WUHU216HW,2013-02-06 15:36:00,
2013-02-06 07:41:00,43.6,40.0,29.99,SE,135,1.1,5.4,87,0.00,,,0.00,WUHU216HW,2013-02-06 15:41:00,
2013-02-06 07:46:00,43.6,40.0,29.99,ESE,113,0.4,5.4,87,0.00,,,0.00,WUHU216HW,2013-02-06 15:46:00,
2013-02-06 07:51:00,43.6,40.0,29.99,South,180,1.8,3.4,87,0.00,,,0.00,WUHU216HW,2013-02-06 15:51:00,
2013-02-06 07:56:00,43.6,40.0,29.99,SSW,203,1.1,6.3,87,0.00,,,0.00,WUHU216HW,2013-02-06 15:56:00,
2013-02-06 08:01:00,43.6,40.0,29.99,South,180,4.0,6.3,87,0.00,,,0.00,WUHU216HW,2013-02-06 16:01:00,
2013-02-06 08:06:00,43.6,40.0,29.99,SSE,158,3.4,6.3,87,0.00,,,0.00,WUHU216HW,2013-02-06 16:06:00,
2013-02-06 08:11:00,43.6,40.0,29.99,South,180,1.3,6.3,87,0.00,,,0.00,WUHU216HW,2013-02-06 16:11:00,
2013-02-06 08:16:00,43.6,40.0,29.99,ESE,113,0.9,4.0,87,0.00,,,0.00,WUHU216HW,2013-02-06 16:16:00,
2013-02-06 08:22:00,43.6,40.0,29.99,SE,135,1.3,4.0,87,0.00,,,0.00,WUHU216HW,2013-02-06 16:22:00,
2013-02-06 08:27:00,43.7,40.2,29.99,ESE,113,1.3,4.0,87,0.00,,,0.00,WUHU216HW,2013-02-06 16:27:00,
2013-02-06 08:32:00,43.7,40.2,29.99,ESE,113,1.3,4.0,87,0.00,,,0.00,WUHU216HW,2013-02-06 16:32:00,
2013-02-06 08:59:00,44.6,41.1,29.99,East,90,2.7,2.7,87,0.00,,,0.00,WUHU216HW,2013-02-06 16:59:00,
2013-02-06 09:04:00,44.6,41.1,29.99,East,90,2.7,2.7,87,0.00,,,0.00,WUHU216HW,2013-02-06 17:04:00,
2013-02-06 09:59:00,46.6,42.0,29.98,SSW,203,3.1,3.1,84,0.00,,,0.00,WUHU216HW,2013-02-06 17:59:00,
2013-02-06 10:04:00,46.6,42.0,29.98,SSW,203,3.1,3.1,84,0.00,,,0.00,WUHU216HW,2013-02-06 18:04:00,
2013-02-06 10:59:00,48.1,42.5,29.98,SSW,203,2.2,2.2,81,0.00,,,0.00,WUHU216HW,2013-02-06 18:59:00,
2013-02-06 11:04:00,48.1,42.5,29.98,SSW,203,2.2,2.2,81,0.00,,,0.00,WUHU216HW,2013-02-06 19:04:00,
2013-02-06 11:59:00,48.6,41.9,29.96,ESE,113,3.6,3.6,78,0.00,,,0.00,WUHU216HW,2013-02-06 19:59:00,
2013-02-06 12:04:00,48.6,41.9,29.96,ESE,113,3.6,3.6,78,0.00,,,0.00,WUHU216HW,2013-02-06 20:04:00,
2013-02-06 12:59:00,50.0,42.8,29.93,ESE,113,0.2,0.2,76,0.00,,,0.00,WUHU216HW,2013-02-06 20:59:00,
2013-02-06 13:04:00,50.0,42.8,29.93,ENE,68,0.4,4.0,76,0.00,,,0.00,WUHU216HW,2013-02-06 21:04:00,
2013-02-06 13:09:00,50.0,42.8,29.93,ENE,68,0.4,4.0,76,0.00,,,0.00,WUHU216HW,2013-02-06 21:09:00,
2013-02-06 13:59:00,50.0,42.4,29.91,NE,45,0.4,0.4,75,0.00,,,0.00,WUHU216HW,2013-02-06 21:59:00,
2013-02-06 14:04:00,50.0,42.4,29.91,NE,45,0.4,0.4,75,0.00,,,0.00,WUHU216HW,2013-02-06 22:04:00,
2013-02-06 14:59:00,50.4,42.0,29.91,SSE,158,3.1,3.1,73,0.00,,,0.00,WUHU216HW,2013-02-06 22:59:00,
2013-02-06 15:04:00,50.4,42.0,29.91,SSE,158,3.1,3.1,73,0.00,,,0.00,WUHU216HW,2013-02-06 23:04:00,
2013-02-06 15:59:00,49.0,41.3,29.91,ESE,113,2.5,2.5,75,0.00,,,0.00,WUHU216HW,2013-02-06 23:59:00,
2013-02-06 16:04:00,48.6,41.0,29.90,SE,135,1.8,3.8,75,0.00,,,0.00,WUHU216HW,2013-02-07 00:04:00,
2013-02-06 16:09:00,48.6,41.0,29.90,SSE,158,3.1,3.8,75,0.00,,,0.00,WUHU216HW,2013-02-07 00:09:00,
2013-02-06 16:14:00,48.6,41.3,29.90,SSE,158,1.8,3.8,76,0.00,,,0.00,WUHU216HW,2013-02-07 00:14:00,
2013-02-06 16:19:00,48.4,41.1,29.89,ESE,113,0.2,3.8,76,0.00,,,0.00,WUHU216HW,2013-02-07 00:19:00,
2013-02-06 16:25:00,48.2,41.0,29.90,ESE,113,0.4,3.4,76,0.00,,,0.00,WUHU216HW,2013-02-07 00:25:00,
2013-02-06 16:30:00,48.2,41.3,29.89,ESE,113,1.1,2.5,77,0.00,,,0.00,WUHU216HW,2013-02-07 00:30:00,
2013-02-06 16:35:00,48.1,41.1,29.89,SSE,158,2.5,2.5,77,0.00,,,0.00,WUHU216HW,2013-02-07 00:35:00,
2013-02-06 16:40:00,47.9,41.0,29.89,East,90,0.7,3.8,77,0.00,,,0.00,WUHU216HW,2013-02-07 00:40:00,
2013-02-06 16:45:00,47.9,41.3,29.90,SSE,158,1.3,3.8,78,0.00,,,0.00,WUHU216HW,2013-02-07 00:45:00,
2013-02-06 16:50:00,47.7,41.1,29.90,SSE,158,1.6,1.8,78,0.00,,,0.00,WUHU216HW,2013-02-07 00:50:00,
2013-02-06 16:55:00,47.5,41.3,29.89,SE,135,2.9,4.0,79,0.01,,,0.01,WUHU216HW,2013-02-07 00:55:00,
2013-02-06 17:00:00,47.2,41.0,29.90,ESE,113,4.0,5.6,79,0.01,,,0.01,WUHU216HW,2013-02-07 01:00:00,
2013-02-06 17:05:00,47.0,41.1,29.90,South,180,1.1,5.6,80,0.01,,,0.01,WUHU216HW,2013-02-07 01:05:00,
2013-02-06 17:10:00,46.8,40.7,29.90,SSE,158,2.5,4.0,79,0.01,,,0.01,WUHU216HW,2013-02-07 01:10:00,
2013-02-06 17:15:00,46.6,40.9,29.90,SSE,158,2.5,2.5,80,0.02,,,0.02,WUHU216HW,2013-02-07 01:15:00,
2013-02-06 17:20:00,46.4,40.7,29.89,SSW,203,0.9,2.5,80,0.02,,,0.02,WUHU216HW,2013-02-07 01:20:00,
2013-02-06 17:26:00,46.4,41.0,29.89,ESE,113,2.2,2.5,81,0.03,,,0.03,WUHU216HW,2013-02-07 01:26:00,
2013-02-06 17:31:00,46.3,40.8,29.89,East,90,0.0,2.2,81,0.03,,,0.03,WUHU216HW,2013-02-07 01:31:00,
2013-02-06 17:36:00,46.1,40.6,29.88,East,90,2.5,3.4,81,0.03,,,0.03,WUHU216HW,2013-02-07 01:36:00,
2013-02-06 17:41:00,45.9,40.4,29.88,SSE,158,0.4,3.4,81,0.03,,,0.03,WUHU216HW,2013-02-07 01:41:00,
2013-02-06 17:46:00,45.7,40.6,29.88,ESE,113,1.1,2.5,82,0.03,,,0.03,WUHU216HW,2013-02-07 01:46:00,
2013-02-06 17:51:00,45.7,40.6,29.87,NNE,23,0.0,1.8,82,0.02,,,0.03,WUHU216HW,2013-02-07 01:51:00,
2013-02-06 17:56:00,45.5,40.4,29.87,NNE,23,0.0,1.3,82,0.02,,,0.03,WUHU216HW,2013-02-07 01:56:00,
2013-02-06 18:01:00,45.5,40.7,29.86,SW,225,0.2,2.5,83,0.02,,,0.03,WUHU216HW,2013-02-07 02:01:00,
2013-02-06 18:06:00,45.5,40.7,29.86,NNE,23,0.4,2.5,83,0.02,,,0.03,WUHU216HW,2013-02-07 02:06:00,
2013-02-06 18:11:00,45.4,40.5,29.86,NNE,23,0.0,1.8,83,0.01,,,0.03,WUHU216HW,2013-02-07 02:11:00,
2013-02-06 18:16:00,45.4,40.5,29.86,East,90,3.4,3.4,83,0.01,,,0.03,WUHU216HW,2013-02-07 02:16:00,
2013-02-06 18:21:00,45.4,40.5,29.86,ENE,68,2.5,3.4,83,0.01,,,0.03,WUHU216HW,2013-02-07 02:21:00,
2013-02-06 18:27:00,45.2,40.3,29.85,SE,135,2.7,4.7,83,0.00,,,0.03,WUHU216HW,2013-02-07 02:27:00,
2013-02-06 18:32:00,45.2,40.3,29.85,ESE,113,0.4,4.7,83,0.00,,,0.03,WUHU216HW,2013-02-07 02:32:00,
2013-02-06 18:37:00,45.2,40.3,29.85,WSW,248,1.1,4.0,83,0.00,,,0.03,WUHU216HW,2013-02-07 02:37:00,
2013-02-06 18:42:00,45.2,40.3,29.85,SW,225,1.8,3.4,83,0.00,,,0.03,WUHU216HW,2013-02-07 02:42:00,
2013-02-06 18:47:00,45.2,40.7,29.85,SE,135,5.1,5.4,84,0.00,,,0.03,WUHU216HW,2013-02-07 02:47:00,
2013-02-06 18:52:00,45.2,40.7,29.85,East,90,3.4,5.4,84,0.00,,,0.03,WUHU216HW,2013-02-07 02:52:00,
2013-02-06 18:57:00,45.0,40.5,29.85,ENE,68,0.0,5.4,84,0.00,,,0.03,WUHU216HW,2013-02-07 02:57:00,
2013-02-06 19:02:00,45.0,40.5,29.84,ESE,113,2.2,3.6,84,0.00,,,0.03,WUHU216HW,2013-02-07 03:02:00,
2013-02-06 19:07:00,45.0,40.5,29.84,South,180,0.7,2.7,84,0.00,,,0.03,WUHU216HW,2013-02-07 03:07:00,
2013-02-06 19:12:00,45.0,40.5,29.84,ESE,113,0.9,2.7,84,0.00,,,0.03,WUHU216HW,2013-02-07 03:12:00,
2013-02-06 19:17:00,45.0,40.5,29.84,SE,135,1.1,2.2,84,0.01,,,0.04,WUHU216HW,2013-02-07 03:17:00,
2013-02-06 19:22:00,45.0,40.5,29.84,ENE,68,1.3,2.2,84,0.01,,,0.04,WUHU216HW,2013-02-07 03:22:00,
2013-02-06 19:28:00,45.0,40.5,29.83,SE,135,0.0,1.8,84,0.01,,,0.04,WUHU216HW,2013-02-07 03:28:00,
2013-02-06 19:33:00,45.0,40.5,29.82,NNE,23,2.5,2.5,84,0.01,,,0.04,WUHU216HW,2013-02-07 03:33:00,
2013-02-06 19:38:00,45.0,40.5,29.82,West,270,0.4,3.4,84,0.01,,,0.04,WUHU216HW,2013-02-07 03:38:00,
2013-02-06 19:43:00,44.8,40.3,29.81,SE,135,1.1,3.4,84,0.01,,,0.04,WUHU216HW,2013-02-07 03:43:00,
2013-02-06 19:48:00,44.8,40.3,29.81,ESE,113,1.8,2.5,84,0.01,,,0.04,WUHU216HW,2013-02-07 03:48:00,
2013-02-06 19:53:00,44.6,40.2,29.81,ESE,113,1.3,3.6,84,0.01,,,0.04,WUHU216HW,2013-02-07 03:53:00,
2013-02-06 19:58:00,44.6,40.2,29.81,East,90,3.8,4.7,84,0.01,,,0.04,WUHU216HW,2013-02-07 03:58:00,
2013-02-06 20:03:00,44.6,40.2,29.80,NNE,23,1.1,4.7,84,0.01,,,0.04,WUHU216HW,2013-02-07 04:03:00,
2013-02-06 20:08:00,44.6,40.2,29.80,SE,135,2.0,5.4,84,0.01,,,0.04,WUHU216HW,2013-02-07 04:08:00,
2013-02-06 20:13:00,44.5,40.0,29.80,NNE,23,0.9,5.4,84,0.00,,,0.04,WUHU216HW,2013-02-07 04:13:00,
2013-02-06 20:18:00,44.5,40.0,29.79,East,90,2.0,2.5,84,0.00,,,0.04,WUHU216HW,2013-02-07 04:18:00,
2013-02-06 20:23:00,44.6,40.2,29.79,SE,135,1.1,2.2,84,0.00,,,0.04,WUHU216HW,2013-02-07 04:23:00,
2013-02-06 20:28:00,44.6,40.2,29.79,East,90,0.2,3.1,84,0.00,,,0.04,WUHU216HW,2013-02-07 04:28:00,
2013-02-06 20:33:00,44.6,40.2,29.79,West,270,1.3,3.1,84,0.00,,,0.04,WUHU216HW,2013-02-07 04:33:00,
2013-02-06 20:39:00,44.6,40.2,29.79,SW,225,0.0,1.8,84,0.00,,,0.04,WUHU216HW,2013-02-07 04:39:00,
2013-02-06 20:44:00,44.6,40.2,29.79,NW,315,0.0,1.3,84,0.00,,,0.04,WUHU216HW,2013-02-07 04:44:00,
2013-02-06 20:49:00,44.6,40.2,29.79,SSW,203,0.4,0.4,84,0.00,,,0.04,WUHU216HW,2013-02-07 04:49:00,
2013-02-06 20:54:00,44.6,40.2,29.79,South,180,0.7,1.1,84,0.00,,,0.04,WUHU216HW,2013-02-07 04:54:00,
2013-02-06 20:59:00,44.6,40.2,29.78,South,180,0.4,1.1,84,0.00,,,0.04,WUHU216HW,2013-02-07 04:59:00,
2013-02-06 21:00:00,44.6,40.2,29.78,SW,225,0.4,1.1,84,0.00,,,0.04,WUHU216HW,2013-02-07 05:00:00,
2013-02-06 21:02:00,44.6,40.2,29.78,SW,225,0.7,1.1,84,0.00,,,0.04,WUHU216HW,2013-02-07 05:02:00,
2013-02-06 21:07:00,44.5,40.0,29.78,SSW,203,1.6,1.6,84,0.00,,,0.04,WUHU216HW,2013-02-07 05:07:00,
2013-02-06 21:12:00,44.5,40.0,29.78,WSW,248,0.2,2.5,84,0.00,,,0.04,WUHU216HW,2013-02-07 05:12:00,
2013-02-06 21:17:00,44.5,40.0,29.77,SSW,203,0.4,2.5,84,0.00,,,0.04,WUHU216HW,2013-02-07 05:17:00,
2013-02-06 21:22:00,44.5,40.0,29.77,South,180,1.6,1.8,84,0.00,,,0.04,WUHU216HW,2013-02-07 05:22:00,
2013-02-06 21:27:00,44.5,40.0,29.77,SSE,158,0.7,2.5,84,0.00,,,0.04,WUHU216HW,2013-02-07 05:27:00,
2013-02-06 21:32:00,44.5,39.6,29.77,South,180,1.1,2.5,83,0.00,,,0.04,WUHU216HW,2013-02-07 05:32:00,
2013-02-06 21:37:00,44.5,39.6,29.77,SSE,158,0.2,1.6,83,0.00,,,0.04,WUHU216HW,2013-02-07 05:37:00,
2013-02-06 21:42:00,44.5,39.6,29.76,South,180,1.3,2.2,83,0.00,,,0.04,WUHU216HW,2013-02-07 05:42:00,
2013-02-06 21:47:00,44.5,39.6,29.76,SSW,203,1.1,2.2,83,0.00,,,0.04,WUHU216HW,2013-02-07 05:47:00,
2013-02-06 21:52:00,44.5,39.6,29.75,North,0,0.0,1.8,83,0.00,,,0.04,WUHU216HW,2013-02-07 05:52:00,
2013-02-06 21:57:00,44.6,39.8,29.75,West,270,1.1,1.3,83,0.00,,,0.04,WUHU216HW,2013-02-07 05:57:00,
2013-02-06 22:02:00,44.6,39.8,29.75,NE,45,0.0,1.3,83,0.00,,,0.04,WUHU216HW,2013-02-07 06:02:00,
2013-02-06 22:07:00,44.6,39.8,29.75,ENE,68,0.0,1.1,83,0.00,,,0.04,WUHU216HW,2013-02-07 06:07:00,
2013-02-06 22:12:00,44.6,39.5,29.75,SE,135,0.9,2.9,82,0.00,,,0.04,WUHU216HW,2013-02-07 06:12:00,
2013-02-06 22:17:00,44.6,39.5,29.74,South,180,0.9,2.9,82,0.00,,,0.04,WUHU216HW,2013-02-07 06:17:00,
2013-02-06 22:22:00,44.8,39.7,29.74,NE,45,0.7,2.0,82,0.00,,,0.04,WUHU216HW,2013-02-07 06:22:00,
2013-02-06 22:27:00,44.8,39.7,29.74,SSE,158,0.4,2.5,82,0.00,,,0.04,WUHU216HW,2013-02-07 06:27:00,
2013-02-06 22:33:00,45.0,39.5,29.74,SE,135,0.9,2.5,81,0.00,,,0.04,WUHU216HW,2013-02-07 06:33:00,
2013-02-06 22:38:00,45.0,39.5,29.74,South,180,1.1,2.5,81,0.00,,,0.04,WUHU216HW,2013-02-07 06:38:00,
2013-02-06 22:43:00,45.2,39.7,29.74,SSW,203,2.2,2.5,81,0.00,,,0.04,WUHU216HW,2013-02-07 06:43:00,
2013-02-06 22:48:00,45.4,39.6,29.74,SSW,203,0.0,2.2,80,0.00,,,0.04,WUHU216HW,2013-02-07 06:48:00,
2013-02-06 22:53:00,45.5,39.8,29.75,South,180,3.8,3.8,80,0.00,,,0.04,WUHU216HW,2013-02-07 06:53:00,
2013-02-06 22:58:00,45.5,39.8,29.74,SSE,158,0.4,3.8,80,0.00,,,0.04,WUHU216HW,2013-02-07 06:58:00,
2013-02-06 23:03:00,45.7,40.0,29.75,ESE,113,1.6,5.4,80,0.00,,,0.04,WUHU216HW,2013-02-07 07:03:00,
2013-02-06 23:08:00,45.7,39.6,29.75,SSW,203,1.3,5.4,79,0.00,,,0.04,WUHU216HW,2013-02-07 07:08:00,
2013-02-06 23:13:00,45.7,39.6,29.75,SE,135,1.1,4.0,79,0.00,,,0.04,WUHU216HW,2013-02-07 07:13:00,
2013-02-06 23:18:00,45.9,39.8,29.74,SSE,158,0.0,3.4,79,0.00,,,0.04,WUHU216HW,2013-02-07 07:18:00,
2013-02-06 23:23:00,45.9,39.8,29.74,East,90,1.8,3.4,79,0.00,,,0.04,WUHU216HW,2013-02-07 07:23:00,
2013-02-06 23:28:00,46.1,39.6,29.74,SSE,158,3.4,4.0,78,0.00,,,0.04,WUHU216HW,2013-02-07 07:28:00,
2013-02-06 23:33:00,46.3,39.8,29.74,South,180,0.7,4.0,78,0.00,,,0.04,WUHU216HW,2013-02-07 07:33:00,
2013-02-06 23:38:00,46.4,39.7,29.74,SSE,158,2.5,6.0,77,0.00,,,0.04,WUHU216HW,2013-02-07 07:38:00,
2013-02-06 23:43:00,46.6,39.8,29.74,SSE,158,1.8,6.0,77,0.00,,,0.04,WUHU216HW,2013-02-07 07:43:00,
2013-02-06 23:49:00,46.8,40.3,29.74,South,180,2.0,5.8,78,0.00,,,0.04,WUHU216HW,2013-02-07 07:49:00,
2013-02-06 23:53:00,46.8,40.3,29.74,SSW,203,0.4,4.0,78,0.00,,,0.04,WUHU216HW,2013-02-07 07:53:00,
2013-02-06 23:59:00,47.0,40.5,29.74,SE,135,3.1,4.0,78,0.00,,,0.04,WUHU216HW,2013-02-07 07:59:00,